SCP
0 0 0 0 0 0 0 0 0 0 0 0 0 0 0 0 0 0 0 0 0 0 0 0 0 0 0 0 0 0 0 0 0 0 0 0 0 0 0 0 0 0 0 0
0 0 0 0 0 0 0 0 0 0 0 0 0 0 0 0 0 0 0 0 0 0 0 0 0 0 0 0 0 0 0 0 0 0 0 0 0 0 0 0 0 0 0 0
0 0 0 0 0 0 0 0 0 0 0 0 0 0 0 0 0 0 0 0 0 0 0 0 0 0 0 0 0 0 0 0 0 0 0 0 0 0 0 0 0 0 0 0
0 0 0 0 0 0 0 0 0 0 0 0 0 0 0 0 0 0 0 0 0 0 0 0 0 0 0 0 0 0 0 0 0 0 0 0 0 0 0 0 0 0 0 0
0 0 0 0 0 0 0 0 0 0 0 0 0 0 0 0 0 0 0 0 0 0 0 0 0 0 0 0 0 0 0 0 0 0 0 0 0 0 0 0 0 0 0 0
0 0 0 0 0 0 0 0 0 0 0 0 0 0 0 0 0 0 0 0 0 0 0 0 0 0 0 0 0 0 0 0 0 0 0 0 0 0 0 0 0 0 0 0
0 0 0 0 0 0 0 0 0 0 0 0 0 0 0 0 0 0 0 0 0 0 0 0 0 0 0 0 0 0 0 0 0 0 0 0 0 0 0 0 0 0 0 0
0 0 0 0 0 0 0 0 0 0 0 0 0 0 0 0 0 0 0 0 0 0 0 0 0 0 0 0 0 0 0 0 0 0 0 0 0 0 0 0 0 0 0 0
0 0 0 0 0 0 0 0 0 0 0 0 0 0 0 0 0 0 0 0 0 0 0 0 0 0 0 0 0 0 0 0 0 0 0 0 0 0 0 0 0 0 0 0
0 0 0 0 0 0 0 0 0 0 0 0 0 0 0 0 0 0 0 0 0 0 0 0 0 0 0 0 0 0 0 0 0 0 0 0 0 0 0 0 0 0 0 0
0 0 0 0 0 0 0 0 0 0 0 0 0 0 0 0 0 0 0 0 0 0 0 0 0 0 0 0 0 0 0 0 0 0 0 0 0 0 0 0 0 0 0 0
0 0 0 0 0 0 0 0 0 0 0 0 0 0 0 0 0 0 0 0 0 0 0 0 0 0 0 0 0 0 0 0 0 0 0 0 0 0 0 0 0 0 0 0
0 0 0 0 0 0 0 0 0 0 0 0 0 0 0 0 0 0 0 0 0 0 0 0 0 0 0 0 0 0 0 0 0 0 0 0 0 0 0 0 0 0 0 0
0 0 0 0 0 0 0 0 0 0 0 0 0 0 0 0 0 0 0 0 0 0 0 0 0 0 0 0 0 0 0 0 0 0 0 0 0 0 0 0 0 0 0 0
0 0 0 0 0 0 0 0 0 0 0 0 0 0 0 0 0 0 0 0 0 0 0 0 0 0 0 0 0 0 0 0 0 0 0 0 0 0 0 0 0 0 0 0
0 0 0 0 0 0 0 0 0 0 0 0 0 0 0 0 0 0 0 0 0 0 0 0 0 0 0 0 0 0 0 0 0 0 0 0 0 0 0 0 0 0 0 0
0 0 0 0 0 0 0 0 0 0 0 0 0 0 0 0 0 0 0 0 0 0 0 0 0 0 0 0 0 0 0 0 0 0 0 0 0 0 0 0 0 0 0 0
0 0 0 0 0 0 0 0 0 0 0 0 0 0 0 0 0 0 0 0 0 0 0 0 0 0 0 0 0 0 0 0 0 0 0 0 0 0 0 0 0 0 0 0
0 0 0 0 0 0 0 0 0 0 0 0 0 0 0 0 0 0 0 0 0 0 0 0 0 0 0 0 0 0 0 0 0 0 0 0 0 0 0 0 0 0 0 0
0 0 0 0 0 0 0 0 0 0 0 0 0 0 0 0 0 0 0 0 0 0 0 0 0 0 0 0 0 0 0 0 0 0 0 0 0 0 0 0 0 0 0 0
0 0 0 0 0 0 0 0 0 0 0 0 0 0 0 0 0 0 0 0 0 0 0 0 0 0 0 0 0 0 0 0 0 0 0 0 0 0 0 0 0 0 0 0
0 0 0 0 0 0 0 0 0 0 0 0 0 0 0 0 0 0 0 0 0 0 0 0 0 0 0 0 0 0 0 0 0 0 0 0 0 0 0 0 0 0 0 0
0 0 0 0 0 0 0 0 0 0 0 0 0 0 0 0 0 0 0 0 0 0 0 0 0 0 0 0 0 0 0 0 0 0 0 0 0 0 0 0 0 0 0 0
0 0 0 0 0 0 0 0 0 0 0 0 0 0 0 0 0 0 0 0 0 0 0 0 0 0 0 0 0 0 0 0 0 0 0 0 0 0 0 0 0 0 0 0
0 0 0 0 0 0 0 0 0 0 0 0 0 0 0 0 0 0 0 0 0 0 0 0 0 0 0 0 0 0 0 0 0 0 0 0 0 0 0 0 0 0 -0 -0
0 0 0 0 0 0 0 0 0 0 0 0 0 0 0 0 0 0 0 0 0 0 0 0 0 0 0 0 0 0 0 0 0 0 0 0 0 0 0 0 0 0 -0 -0
Wind_Speed
3 4 7 13 14 7 5 5 5 7 5 5 8 9 11 7 2 6 6 6 6 6 5 7 9 9 10 12 13 14 14 13 9 6 5 5 6 6 7 8 11 10 7 5
3 6 12 6 5 4 4 5 6 7 4 4 6 8 7 4 1 5 8 6 5 5 6 8 9 10 12 13 13 14 14 13 11 6 4 3 4 5 5 7 10 12 11 8
11 8 5 6 6 7 7 7 7 7 5 3 2 6 5 2 5 8 8 6 5 5 5 6 9 10 11 14 13 12 13 14 13 11 6 5 6 5 7 9 9 11 12 12
7 6 3 5 6 7 6 8 8 5 2 4 1 5 7 3 4 4 5 5 5 5 5 6 7 9 11 11 10 12 13 14 13 12 11 12 9 7 6 5 6 9 12 13
7 4 6 7 8 8 7 2 2 1 2 2 2 5 8 2 5 6 5 5 5 4 5 6 6 7 8 9 9 10 12 14 13 13 12 11 10 7 5 6 10 10 10 11
5 2 4 6 1 4 4 5 6 5 4 4 6 7 9 4 6 7 7 6 6 5 5 5 5 6 7 8 8 9 11 12 11 12 12 12 12 10 11 11 10 8 7 9
4 3 3 3 4 2 4 5 2 3 1 8 2 4 9 3 2 9 12 9 6 5 5 4 5 6 6 7 8 8 10 11 10 10 11 10 10 10 11 9 9 9 7 8
5 6 6 6 8 8 6 9 8 7 6 6 3 8 5 4 4 10 10 8 7 6 5 5 5 4 5 6 6 7 8 7 7 8 7 7 7 6 6 7 7 7 6 6
8 7 1 4 3 9 6 5 5 5 2 3 7 5 0 2 5 7 8 7 7 7 7 7 6 6 5 5 5 5 5 5 5 5 5 5 6 6 6 5 5 4 5 6
8 5 3 1 2 0 4 7 5 5 6 7 6 5 5 8 8 8 9 8 8 8 8 8 7 6 5 5 4 4 4 4 3 4 4 3 4 5 5 4 5 5 5 5
6 7 2 2 7 8 4 4 5 5 5 7 5 8 3 8 12 13 11 10 11 12 12 9 7 6 6 5 5 4 4 3 2 3 3 4 4 4 4 4 5 5 5 6
5 5 4 6 4 2 6 7 8 7 7 6 5 8 1 3 8 10 11 13 13 12 9 7 7 6 6 6 5 5 4 3 2 2 2 2 3 3 4 4 5 5 6 6
7 7 2 5 2 1 3 2 3 3 3 4 6 7 1 2 5 7 10 11 10 8 7 7 7 7 7 6 6 5 5 5 4 3 1 1 2 3 4 5 5 6 6 7
7 6 9 11 7 5 5 4 4 4 4 5 8 7 5 6 6 6 7 8 8 8 9 8 7 7 7 7 7 6 6 6 5 4 2 1 2 3 4 5 6 6 7 7
5 6 5 3 2 3 5 6 4 6 8 10 9 10 13 8 7 7 6 5 5 7 8 9 8 7 7 7 7 7 6 6 5 3 2 2 3 4 5 6 7 8 8 10
4 5 4 3 1 2 6 9 7 9 9 10 11 16 11 3 3 3 2 3 4 5 7 7 7 8 8 8 8 7 6 5 4 2 1 2 4 5 6 7 8 10 11 11
6 7 5 4 2 4 10 12 12 10 9 9 13 12 2 3 5 5 3 2 2 3 4 6 7 8 9 8 7 7 5 4 3 1 1 3 4 5 6 8 10 12 13 14
8 8 5 3 4 10 12 2 5 7 9 9 8 6 5 6 5 4 3 3 3 4 4 5 6 7 7 6 5 4 4 4 2 1 2 2 3 4 6 8 10 12 12 13
6 9 6 6 6 10 12 7 7 7 8 6 7 5 4 3 2 2 3 5 5 6 6 7 8 7 5 5 5 6 5 3 1 0 1 2 3 5 7 9 11 11 12 13
3 5 7 7 7 11 10 2 2 4 7 5 6 7 6 7 4 6 7 6 6 7 7 7 6 4 5 5 5 5 4 2 1 1 2 2 3 5 8 10 11 10 11 13
6 5 7 8 8 11 10 4 5 5 10 4 7 9 10 10 10 8 8 8 8 8 8 6 6 6 6 6 5 5 3 2 2 2 2 3 4 6 8 9 9 10 12 13
11 10 9 7 9 14 6 8 9 11 4 6 8 10 11 11 10 9 9 9 9 8 7 6 7 7 6 6 5 4 3 2 1 1 3 5 6 7 7 8 9 9 10 12
10 11 10 12 11 4 8 10 10 7 7 8 9 11 12 12 11 10 10 9 9 9 7 7 7 8 6 5 5 4 3 2 1 2 4 6 7 7 7 8 10 9 8 9
5 5 6 5 8 7 8 10 8 8 10 11 11 12 12 12 12 11 9 9 8 7 7 7 7 7 6 5 4 4 2 2 2 4 5 6 6 7 6 7 8 8 8 10
9 7 7 7 7 6 9 12 14 12 10 10 10 11 12 13 13 12 10 9 8 6 6 7 7 7 6 5 4 3 2 2 3 4 5 5 6 6 6 7 7 10 10 12
9 10 11 11 12 10 10 12 13 12 13 13 13 13 12 13 14 12 10 8 6 6 6 6 6 5 5 4 3 3 3 3 3 4 4 4 5 5 6 7 9 16 18 24
Wind_Direction
120 111 198 206 202 200 181 194 235 254 247 201 228 246 263 282 112 127 121 101 84 65 33 18 13 14 25 28 30 27 27 19 22 29 36 45 46 37 39 35 31 29 30 37
96 234 228 208 195 219 230 240 253 273 271 215 237 252 261 319 17 136 131 112 93 72 38 27 24 26 31 33 30 32 29 24 22 22 30 53 66 46 39 35 32 27 26 27
185 223 208 176 195 205 224 220 230 246 301 316 295 295 270 54 64 75 86 91 84 75 50 30 30 32 36 36 31 33 32 31 26 24 31 37 42 38 30 25 25 23 24 23
228 249 203 188 212 191 239 225 216 229 233 283 326 280 271 190 117 102 99 94 86 68 50 40 36 39 39 34 31 36 37 38 32 32 43 53 55 51 29 20 25 27 31 28
233 235 213 222 228 188 221 210 168 165 184 288 294 257 272 179 186 178 153 131 111 87 66 51 44 46 43 37 37 38 43 43 38 40 44 52 54 49 38 35 34 30 26 26
242 250 200 207 189 172 147 76 52 49 73 266 223 210 271 229 214 164 156 144 130 109 85 66 53 51 47 41 41 41 48 45 39 43 45 50 51 46 44 37 33 28 23 21
263 243 226 164 135 104 122 105 33 325 301 247 235 215 251 326 307 158 153 148 142 133 120 97 74 62 57 52 48 47 52 48 39 44 46 46 47 48 46 36 30 25 20 15
204 247 213 189 181 176 180 158 174 209 227 266 282 234 265 2 62 113 130 143 150 150 143 133 124 109 92 78 66 59 57 52 43 45 45 43 46 48 45 39 33 26 13 2
191 235 219 188 197 151 158 194 176 149 150 262 260 266 15 82 93 121 143 157 168 169 169 166 158 144 128 112 100 90 81 68 55 53 55 48 46 50 45 35 30 20 3 355
176 211 213 172 118 344 169 152 121 156 194 234 262 249 229 176 185 182 182 182 186 189 191 186 174 162 151 141 130 118 108 98 79 62 53 51 40 39 34 26 15 3 349 344
170 189 191 147 193 193 158 170 175 179 184 188 236 254 230 187 186 189 192 192 195 200 200 190 178 168 158 151 148 146 139 120 95 73 57 44 29 23 17 8 354 344 336 335
156 154 211 233 247 231 196 195 174 189 224 208 213 255 283 177 172 175 189 201 208 208 194 178 171 165 165 167 166 166 168 164 162 142 87 46 20 7 356 341 331 326 322 320
149 140 172 319 276 195 203 192 162 143 162 209 222 255 215 150 167 184 196 209 215 198 175 169 169 172 178 180 178 177 181 187 187 172 152 2 337 334 326 319 316 315 310 308
135 156 190 210 205 180 193 195 158 147 189 227 229 245 231 219 218 228 230 227 214 190 178 174 177 181 184 186 188 189 195 194 190 184 193 269 304 315 318 320 321 318 314 312
125 187 213 236 153 172 227 237 204 200 203 217 237 242 252 244 231 227 230 225 196 187 186 186 186 188 191 195 200 200 201 196 187 184 216 282 312 325 332 331 327 324 322 319
119 161 163 260 251 215 261 253 232 237 230 229 246 261 268 264 178 184 198 188 190 199 203 204 200 198 202 206 207 203 202 196 176 180 269 332 338 340 340 335 331 325 319 316
153 140 151 239 359 18 267 242 229 224 212 206 233 248 263 197 186 184 183 185 214 219 215 212 210 210 213 215 206 200 195 165 146 138 346 344 346 345 342 335 326 319 315 311
149 142 145 145 99 233 244 192 217 234 247 229 233 246 215 209 190 184 192 212 239 240 226 220 219 221 220 210 190 165 140 135 133 91 342 359 10 347 330 321 313 310 308 305
153 148 148 160 210 264 284 251 202 205 256 226 210 215 203 169 124 277 233 194 200 215 220 224 223 218 202 179 157 139 133 126 119 30 27 45 8 326 314 306 303 303 302 299
161 141 152 165 187 227 243 204 161 99 280 242 186 185 177 148 180 243 230 218 223 230 231 231 221 189 164 150 136 136 141 141 167 82 50 5 327 306 297 296 297 296 294 293
151 179 195 193 211 246 246 203 121 170 240 214 182 188 183 191 208 215 214 224 233 238 238 222 189 172 159 142 134 142 154 180 126 77 348 312 298 288 285 285 286 290 291 292
172 178 196 179 208 242 207 152 186 215 200 185 197 200 201 214 224 223 224 230 237 237 224 190 170 158 143 139 140 157 176 148 102 346 298 287 281 280 282 279 284 285 287 291
198 190 182 191 211 230 171 191 212 194 193 202 204 210 212 222 230 229 229 232 234 231 206 180 166 156 149 144 149 173 175 156 197 280 278 275 272 267 270 276 286 290 286 287
240 162 158 214 248 233 223 224 226 205 209 213 210 214 217 226 234 233 232 234 233 223 190 167 159 165 171 166 161 171 184 181 220 260 269 271 272 274 272 272 280 284 287 288
212 178 182 213 238 242 240 231 233 232 229 232 232 227 226 228 232 230 232 234 229 209 174 162 170 174 174 168 174 188 202 209 239 258 264 273 274 273 279 277 272 281 274 276
204 186 183 212 217 205 223 229 228 229 231 230 233 239 234 222 227 227 229 227 213 185 161 158 161 164 166 174 208 226 229 224 237 262 272 279 285 282 285 292 295 292 295 299